Year,Month,Day,Hour,Minute,Value (Times are PST for temperature in C)
2006,08,17,00,00,14.30
2006,08,17,00,01,14.30
2006,08,17,00,02,14.30
2006,08,17,00,03,14.30
2006,08,17,00,04,14.30
2006,08,17,00,05,14.30
2006,08,17,00,06,14.30
2006,08,17,00,07,14.30
2006,08,17,00,08,14.30
2006,08,17,00,09,14.30
2006,08,17,00,10,14.30
2006,08,17,00,11,14.30
2006,08,17,00,12,14.30
2006,08,17,00,13,14.30
2006,08,17,00,14,14.30
2006,08,17,00,15,14.30
2006,08,17,00,16,14.20
2006,08,17,00,17,14.20
2006,08,17,00,18,14.20
2006,08,17,00,19,14.20
2006,08,17,00,20,14.10
2006,08,17,00,21,14.10
2006,08,17,00,22,14.10
2006,08,17,00,23,14.10
2006,08,17,00,24,14.10
2006,08,17,00,25,14.00
2006,08,17,00,26,14.00
2006,08,17,00,27,14.00
2006,08,17,00,28,13.90
2006,08,17,00,29,13.90
2006,08,17,00,30,13.90
2006,08,17,00,31,13.90
2006,08,17,00,32,13.90
2006,08,17,00,33,13.90
2006,08,17,00,34,13.80
2006,08,17,00,35,13.80
2006,08,17,00,36,13.80
2006,08,17,00,37,13.80
2006,08,17,00,38,13.80
2006,08,17,00,39,13.80
2006,08,17,00,40,13.80
2006,08,17,00,41,13.70
2006,08,17,00,42,13.70
2006,08,17,00,43,13.70
2006,08,17,00,44,13.70
2006,08,17,00,45,13.70
2006,08,17,00,46,13.70
2006,08,17,00,47,13.70
2006,08,17,00,48,13.70
2006,08,17,00,49,13.70
2006,08,17,00,50,13.70
2006,08,17,00,51,13.60
2006,08,17,00,52,13.60
2006,08,17,00,53,13.60
2006,08,17,00,54,13.60
2006,08,17,00,55,13.60
2006,08,17,00,56,13.60
2006,08,17,00,57,13.60
2006,08,17,00,58,13.60
2006,08,17,00,59,13.60
2006,08,17,01,00,13.60
2006,08,17,01,01,13.60
2006,08,17,01,02,13.60
2006,08,17,01,03,13.60
2006,08,17,01,04,13.60
2006,08,17,01,05,13.60
2006,08,17,01,06,13.60
2006,08,17,01,07,13.60
2006,08,17,01,08,13.60
2006,08,17,01,09,13.60
2006,08,17,01,10,13.60
2006,08,17,01,11,13.60
2006,08,17,01,12,13.60
2006,08,17,01,13,13.60
2006,08,17,01,14,13.60
2006,08,17,01,15,13.60
2006,08,17,01,16,13.60
2006,08,17,01,17,13.60
2006,08,17,01,18,13.60
2006,08,17,01,19,13.60
2006,08,17,01,20,13.60
2006,08,17,01,21,13.50
2006,08,17,01,22,13.50
2006,08,17,01,23,13.50
2006,08,17,01,24,13.50
2006,08,17,01,25,13.50
2006,08,17,01,26,13.50
2006,08,17,01,27,13.50
2006,08,17,01,28,13.50
2006,08,17,01,29,13.50
2006,08,17,01,30,13.50
2006,08,17,01,31,13.50
2006,08,17,01,32,13.50
2006,08,17,01,33,13.50
2006,08,17,01,34,13.50
2006,08,17,01,35,13.50
2006,08,17,01,36,13.40
2006,08,17,01,37,13.40
2006,08,17,01,38,13.40
2006,08,17,01,39,13.40
2006,08,17,01,40,13.40
2006,08,17,01,41,13.30
2006,08,17,01,42,13.30
2006,08,17,01,43,13.30
2006,08,17,01,44,13.30
2006,08,17,01,45,13.20
2006,08,17,01,46,13.10
2006,08,17,01,47,13.10
2006,08,17,01,48,13.00
2006,08,17,01,49,13.00
2006,08,17,01,50,12.90
2006,08,17,01,51,12.90
2006,08,17,01,52,12.90
2006,08,17,01,53,12.80
2006,08,17,01,54,12.80
2006,08,17,01,55,12.80
2006,08,17,01,56,12.70
2006,08,17,01,57,12.70
2006,08,17,01,58,12.70
2006,08,17,01,59,12.70
2006,08,17,02,00,12.60
2006,08,17,02,01,12.60
2006,08,17,02,02,12.60
2006,08,17,02,03,12.60
2006,08,17,02,04,12.60
2006,08,17,02,05,12.50
2006,08,17,02,06,12.50
2006,08,17,02,07,12.50
2006,08,17,02,08,12.50
2006,08,17,02,09,12.40
2006,08,17,02,10,12.40
2006,08,17,02,11,12.40
2006,08,17,02,12,12.40
2006,08,17,02,13,12.40
2006,08,17,02,14,12.40
2006,08,17,02,15,12.30
2006,08,17,02,16,12.30
2006,08,17,02,17,12.30
2006,08,17,02,18,12.30
2006,08,17,02,19,12.30
2006,08,17,02,20,12.20
2006,08,17,02,21,12.20
2006,08,17,02,22,12.20
2006,08,17,02,23,12.20
2006,08,17,02,24,12.20
2006,08,17,02,25,12.20
2006,08,17,02,26,12.20
2006,08,17,02,27,12.10
2006,08,17,02,28,12.10
2006,08,17,02,29,12.10
2006,08,17,02,30,12.10
2006,08,17,02,31,12.10
2006,08,17,02,32,12.10
2006,08,17,02,33,12.10
2006,08,17,02,34,12.10
2006,08,17,02,35,12.10
2006,08,17,02,36,12.00
2006,08,17,02,37,12.00
2006,08,17,02,38,12.00
2006,08,17,02,39,12.00
2006,08,17,02,40,11.90
2006,08,17,02,41,11.90
2006,08,17,02,42,11.90
2006,08,17,02,43,11.90
2006,08,17,02,44,11.90
2006,08,17,02,45,11.90
2006,08,17,02,46,11.80
2006,08,17,02,47,11.80
2006,08,17,02,48,11.80
2006,08,17,02,49,11.80
2006,08,17,02,50,11.80
2006,08,17,02,51,11.80
2006,08,17,02,52,11.80
2006,08,17,02,53,11.80
2006,08,17,02,54,11.80
2006,08,17,02,55,11.70
2006,08,17,02,56,11.70
2006,08,17,02,57,11.70
2006,08,17,02,58,11.70
2006,08,17,02,59,11.70
2006,08,17,03,00,11.70
2006,08,17,03,01,11.70
2006,08,17,03,02,11.70
2006,08,17,03,03,11.70
2006,08,17,03,04,11.70
2006,08,17,03,05,11.70
2006,08,17,03,06,11.70
2006,08,17,03,07,11.70
2006,08,17,03,08,11.70
2006,08,17,03,09,11.70
2006,08,17,03,10,11.70
2006,08,17,03,11,11.70
2006,08,17,03,12,11.70
2006,08,17,03,13,11.60
2006,08,17,03,14,11.60
2006,08,17,03,15,11.60
2006,08,17,03,16,11.60
2006,08,17,03,17,11.60
2006,08,17,03,18,11.60
2006,08,17,03,19,11.60
2006,08,17,03,20,11.60
2006,08,17,03,21,11.60
2006,08,17,03,22,11.50
2006,08,17,03,23,11.50
2006,08,17,03,24,11.50
2006,08,17,03,25,11.50
2006,08,17,03,26,11.50
2006,08,17,03,27,11.50
2006,08,17,03,28,11.50
2006,08,17,03,29,11.40
2006,08,17,03,30,11.40
2006,08,17,03,31,11.40
2006,08,17,03,32,11.40
2006,08,17,03,33,11.40
2006,08,17,03,34,11.40
2006,08,17,03,35,11.40
2006,08,17,03,36,11.40
2006,08,17,03,37,11.40
2006,08,17,03,38,11.40
2006,08,17,03,39,11.40
2006,08,17,03,40,11.40
2006,08,17,03,41,11.40
2006,08,17,03,42,11.40
2006,08,17,03,43,11.40
2006,08,17,03,44,11.40
2006,08,17,03,45,11.40
2006,08,17,03,46,11.40
2006,08,17,03,47,11.30
2006,08,17,03,48,11.30
2006,08,17,03,49,11.30
2006,08,17,03,50,11.30
2006,08,17,03,51,11.30
2006,08,17,03,52,11.30
2006,08,17,03,53,11.30
2006,08,17,03,54,11.30
2006,08,17,03,55,11.20
2006,08,17,03,56,11.20
2006,08,17,03,57,11.20
2006,08,17,03,58,11.20
2006,08,17,03,59,11.30
2006,08,17,04,00,11.30
2006,08,17,04,01,11.30
2006,08,17,04,02,11.30
2006,08,17,04,03,11.30
2006,08,17,04,04,11.30
2006,08,17,04,05,11.30
2006,08,17,04,06,11.30
2006,08,17,04,07,11.30
2006,08,17,04,08,11.30
2006,08,17,04,09,11.30
2006,08,17,04,10,11.30
2006,08,17,04,11,11.30
2006,08,17,04,12,11.30
2006,08,17,04,13,11.30
2006,08,17,04,14,11.30
2006,08,17,04,15,11.30
2006,08,17,04,16,11.30
2006,08,17,04,17,11.30
2006,08,17,04,18,11.30
2006,08,17,04,19,11.30
2006,08,17,04,20,11.30
2006,08,17,04,21,11.30
2006,08,17,04,22,11.30
2006,08,17,04,23,11.30
2006,08,17,04,24,11.30
2006,08,17,04,25,11.30
2006,08,17,04,26,11.30
2006,08,17,04,27,11.30
2006,08,17,04,28,11.30
2006,08,17,04,29,11.20
2006,08,17,04,30,11.20
2006,08,17,04,31,11.20
2006,08,17,04,32,11.20
2006,08,17,04,33,11.20
2006,08,17,04,34,11.20
2006,08,17,04,35,11.20
2006,08,17,04,36,11.10
2006,08,17,04,37,11.10
2006,08,17,04,38,11.10
2006,08,17,04,39,11.10
2006,08,17,04,40,11.10
2006,08,17,04,41,11.00
2006,08,17,04,42,11.00
2006,08,17,04,43,11.00
2006,08,17,04,44,11.10
2006,08,17,04,45,11.00
2006,08,17,04,46,11.00
2006,08,17,04,47,11.00
2006,08,17,04,48,11.00
2006,08,17,04,49,11.00
2006,08,17,04,50,10.90
2006,08,17,04,51,10.90
2006,08,17,04,52,10.90
2006,08,17,04,53,10.90
2006,08,17,04,54,10.90
2006,08,17,04,55,10.90
2006,08,17,04,56,10.90
2006,08,17,04,57,10.90
2006,08,17,04,58,10.90
2006,08,17,04,59,10.80
2006,08,17,05,00,10.80
2006,08,17,05,01,10.80
2006,08,17,05,02,10.80
2006,08,17,05,03,10.80
2006,08,17,05,04,10.80
2006,08,17,05,05,10.80
2006,08,17,05,06,10.80
2006,08,17,05,07,10.80
2006,08,17,05,08,10.80
2006,08,17,05,09,10.80
2006,08,17,05,10,10.80
2006,08,17,05,11,10.70
2006,08,17,05,12,10.70
2006,08,17,05,13,10.70
2006,08,17,05,14,10.70
2006,08,17,05,15,10.70
2006,08,17,05,16,10.70
2006,08,17,05,17,10.60
2006,08,17,05,18,10.60
2006,08,17,05,19,10.60
2006,08,17,05,20,10.60
2006,08,17,05,21,10.60
2006,08,17,05,22,10.50
2006,08,17,05,23,10.50
2006,08,17,05,24,10.50
2006,08,17,05,25,10.40
2006,08,17,05,26,10.40
2006,08,17,05,27,10.40
2006,08,17,05,28,10.40
2006,08,17,05,29,10.40
2006,08,17,05,30,10.40
2006,08,17,05,31,10.40
2006,08,17,05,32,10.30
2006,08,17,05,33,10.30
2006,08,17,05,34,10.30
2006,08,17,05,35,10.30
2006,08,17,05,36,10.30
2006,08,17,05,37,10.30
2006,08,17,05,38,10.30
2006,08,17,05,39,10.30
2006,08,17,05,40,10.30
2006,08,17,05,41,10.30
2006,08,17,05,42,10.30
2006,08,17,05,43,10.30
2006,08,17,05,44,10.30
2006,08,17,05,45,10.20
2006,08,17,05,46,10.20
2006,08,17,05,47,10.20
2006,08,17,05,48,10.20
2006,08,17,05,49,10.20
2006,08,17,05,50,10.20
2006,08,17,05,51,10.10
2006,08,17,05,52,10.10
2006,08,17,05,53,10.10
2006,08,17,05,54,10.10
2006,08,17,05,55,10.10
2006,08,17,05,56,10.10
2006,08,17,05,57,10.10
2006,08,17,05,58,10.10
2006,08,17,05,59,10.10
2006,08,17,06,00,10.10
2006,08,17,06,01,10.20
2006,08,17,06,02,10.20
2006,08,17,06,03,10.10
2006,08,17,06,04,10.10
2006,08,17,06,05,10.10
2006,08,17,06,06,10.10
2006,08,17,06,07,10.10
2006,08,17,06,08,10.10
2006,08,17,06,09,10.10
2006,08,17,06,10,10.10
2006,08,17,06,11,10.10
2006,08,17,06,12,10.10
2006,08,17,06,13,10.10
2006,08,17,06,14,10.10
2006,08,17,06,15,10.10
2006,08,17,06,16,10.10
2006,08,17,06,17,10.10
2006,08,17,06,18,10.10
2006,08,17,06,19,10.10
2006,08,17,06,20,10.10
2006,08,17,06,21,10.10
2006,08,17,06,22,10.10
2006,08,17,06,23,10.10
2006,08,17,06,24,10.10
2006,08,17,06,25,10.10
2006,08,17,06,26,10.10
2006,08,17,06,27,10.10
2006,08,17,06,28,10.10
2006,08,17,06,29,10.10
2006,08,17,06,30,10.10
2006,08,17,06,31,10.20
2006,08,17,06,32,10.20
2006,08,17,06,33,10.20
2006,08,17,06,34,10.20
2006,08,17,06,35,10.20
2006,08,17,06,36,10.20
2006,08,17,06,37,10.20
2006,08,17,06,38,10.20
2006,08,17,06,39,10.30
2006,08,17,06,40,10.30
2006,08,17,06,41,10.30
2006,08,17,06,42,10.30
2006,08,17,06,43,10.30
2006,08,17,06,44,10.30
2006,08,17,06,45,10.30
2006,08,17,06,46,10.30
2006,08,17,06,47,10.30
2006,08,17,06,48,10.30
2006,08,17,06,49,10.30
2006,08,17,06,50,10.30
2006,08,17,06,51,10.30
2006,08,17,06,52,10.40
2006,08,17,06,53,10.40
2006,08,17,06,54,10.40
2006,08,17,06,55,10.40
2006,08,17,06,56,10.40
2006,08,17,06,57,10.40
2006,08,17,06,58,10.50
2006,08,17,06,59,10.50
2006,08,17,07,00,10.50
2006,08,17,07,01,10.50
2006,08,17,07,02,10.60
2006,08,17,07,03,10.60
2006,08,17,07,04,10.60
2006,08,17,07,05,10.60
2006,08,17,07,06,10.60
2006,08,17,07,07,10.70
2006,08,17,07,08,10.70
2006,08,17,07,09,10.80
2006,08,17,07,10,10.80
2006,08,17,07,11,10.90
2006,08,17,07,12,10.90
2006,08,17,07,13,11.00
2006,08,17,07,14,11.10
2006,08,17,07,15,11.10
2006,08,17,07,16,11.20
2006,08,17,07,17,11.30
2006,08,17,07,18,11.30
2006,08,17,07,19,11.40
2006,08,17,07,20,11.50
2006,08,17,07,21,11.60
2006,08,17,07,22,11.70
2006,08,17,07,23,11.70
2006,08,17,07,24,11.80
2006,08,17,07,25,11.90
2006,08,17,07,26,11.90
2006,08,17,07,27,11.90
2006,08,17,07,28,12.00
2006,08,17,07,29,12.00
2006,08,17,07,30,12.10
2006,08,17,07,31,12.10
2006,08,17,07,32,12.20
2006,08,17,07,33,12.30
2006,08,17,07,34,12.40
2006,08,17,07,35,12.50
2006,08,17,07,36,12.60
2006,08,17,07,37,12.60
2006,08,17,07,38,12.70
2006,08,17,07,39,12.70
2006,08,17,07,40,12.80
2006,08,17,07,41,12.80
2006,08,17,07,42,12.90
2006,08,17,07,43,12.90
2006,08,17,07,44,13.00
2006,08,17,07,45,13.10
2006,08,17,07,46,13.10
2006,08,17,07,47,13.20
2006,08,17,07,48,13.20
2006,08,17,07,49,13.20
2006,08,17,07,50,13.20
2006,08,17,07,51,13.30
2006,08,17,07,52,13.30
2006,08,17,07,53,13.40
2006,08,17,07,54,13.50
2006,08,17,07,55,13.50
2006,08,17,07,56,13.60
2006,08,17,07,57,13.60
2006,08,17,07,58,13.70
2006,08,17,07,59,13.80
2006,08,17,08,00,13.90
2006,08,17,08,01,14.00
2006,08,17,08,02,14.00
2006,08,17,08,03,14.10
2006,08,17,08,04,14.10
2006,08,17,08,05,14.10
2006,08,17,08,06,14.20
2006,08,17,08,07,14.20
2006,08,17,08,08,14.10
2006,08,17,08,09,14.10
2006,08,17,08,10,14.10
2006,08,17,08,11,14.10
2006,08,17,08,12,14.20
2006,08,17,08,13,14.20
2006,08,17,08,14,14.20
2006,08,17,08,15,14.30
2006,08,17,08,16,14.30
2006,08,17,08,17,14.30
2006,08,17,08,18,14.40
2006,08,17,08,19,14.50
2006,08,17,08,20,14.60
2006,08,17,08,21,14.70
2006,08,17,08,22,14.80
2006,08,17,08,23,14.90
2006,08,17,08,24,14.90
2006,08,17,08,25,14.90
2006,08,17,08,26,14.90
2006,08,17,08,27,14.90
2006,08,17,08,28,14.80
2006,08,17,08,29,14.90
2006,08,17,08,30,14.90
2006,08,17,08,31,15.00
2006,08,17,08,32,15.00
2006,08,17,08,33,15.00
2006,08,17,08,34,15.00
2006,08,17,08,35,15.00
2006,08,17,08,36,15.00
2006,08,17,08,37,15.00
2006,08,17,08,38,15.00
2006,08,17,08,39,15.00
2006,08,17,08,40,15.00
2006,08,17,08,41,15.00
2006,08,17,08,42,15.00
2006,08,17,08,43,15.00
2006,08,17,08,44,15.00
2006,08,17,08,45,15.00
2006,08,17,08,46,15.00
2006,08,17,08,47,15.00
2006,08,17,08,48,15.00
2006,08,17,08,49,15.00
2006,08,17,08,50,15.00
2006,08,17,08,51,15.00
2006,08,17,08,52,15.00
2006,08,17,08,53,15.00
2006,08,17,08,54,15.00
2006,08,17,08,55,15.00
2006,08,17,08,56,15.00
2006,08,17,08,57,15.00
2006,08,17,08,58,15.00
2006,08,17,08,59,15.00
2006,08,17,09,00,15.00
2006,08,17,09,01,15.00
2006,08,17,09,02,15.00
2006,08,17,09,03,15.00
2006,08,17,09,04,15.00
2006,08,17,09,05,15.00
2006,08,17,09,06,15.00
2006,08,17,09,07,15.00
2006,08,17,09,08,15.00
2006,08,17,09,09,15.00
2006,08,17,09,10,15.00
2006,08,17,09,11,15.00
2006,08,17,09,12,14.90
2006,08,17,09,13,14.80
2006,08,17,09,14,14.80
2006,08,17,09,15,14.80
2006,08,17,09,16,14.80
2006,08,17,09,17,14.80
2006,08,17,09,18,14.80
2006,08,17,09,19,14.80
2006,08,17,09,20,14.80
2006,08,17,09,21,14.80
2006,08,17,09,22,14.90
2006,08,17,09,23,14.90
2006,08,17,09,24,15.00
2006,08,17,09,25,15.00
2006,08,17,09,26,15.00
2006,08,17,09,27,15.00
2006,08,17,09,28,15.00
2006,08,17,09,29,15.00
2006,08,17,09,30,15.00
2006,08,17,09,31,15.00
2006,08,17,09,32,15.00
2006,08,17,09,33,15.00
2006,08,17,09,34,15.00
2006,08,17,09,35,15.00
2006,08,17,09,36,15.00
2006,08,17,09,37,15.00
2006,08,17,09,38,15.00
2006,08,17,09,39,15.00
2006,08,17,09,40,15.00
2006,08,17,09,41,15.00
2006,08,17,09,42,15.00
2006,08,17,09,43,15.00
2006,08,17,09,44,15.10
2006,08,17,09,45,15.20
2006,08,17,09,46,15.20
2006,08,17,09,47,15.20
2006,08,17,09,48,15.20
2006,08,17,09,49,15.20
2006,08,17,09,50,15.30
2006,08,17,09,51,15.30
2006,08,17,09,52,15.30
2006,08,17,09,53,15.40
2006,08,17,09,54,15.40
2006,08,17,09,55,15.40
2006,08,17,09,56,15.30
2006,08,17,09,57,15.30
2006,08,17,09,58,15.30
2006,08,17,09,59,15.30
2006,08,17,10,00,15.30
2006,08,17,10,01,15.30
2006,08,17,10,02,15.30
2006,08,17,10,03,15.30
2006,08,17,10,04,15.30
2006,08,17,10,05,15.30
2006,08,17,10,06,15.30
2006,08,17,10,07,15.40
2006,08,17,10,08,15.30
2006,08,17,10,09,15.30
2006,08,17,10,10,15.30
2006,08,17,10,11,15.40
2006,08,17,10,12,15.40
2006,08,17,10,13,15.40
2006,08,17,10,14,15.40
2006,08,17,10,15,15.40
2006,08,17,10,16,15.30
2006,08,17,10,17,15.30
2006,08,17,10,18,15.30
2006,08,17,10,19,15.30
2006,08,17,10,20,15.30
2006,08,17,10,21,15.30
2006,08,17,10,22,15.30
2006,08,17,10,23,15.30
2006,08,17,10,24,15.30
2006,08,17,10,25,15.30
2006,08,17,10,26,15.30
2006,08,17,10,27,15.30
2006,08,17,10,28,15.30
2006,08,17,10,29,15.30
2006,08,17,10,30,15.30
2006,08,17,10,31,15.30
2006,08,17,10,32,15.30
2006,08,17,10,33,15.30
2006,08,17,10,34,15.30
2006,08,17,10,35,15.30
2006,08,17,10,36,15.20
2006,08,17,10,37,15.10
2006,08,17,10,38,15.00
2006,08,17,10,39,15.00
2006,08,17,10,40,15.00
2006,08,17,10,41,15.00
2006,08,17,10,42,15.00
2006,08,17,10,43,15.00
2006,08,17,10,44,15.20
2006,08,17,10,45,15.30
2006,08,17,10,46,15.30
2006,08,17,10,47,15.30
2006,08,17,10,48,15.30
2006,08,17,10,49,15.30
2006,08,17,10,50,15.30
2006,08,17,10,51,15.30
2006,08,17,10,52,15.20
2006,08,17,10,53,15.20
2006,08,17,10,54,15.20
2006,08,17,10,55,15.30
2006,08,17,10,56,15.30
2006,08,17,10,57,15.30
2006,08,17,10,58,15.40
2006,08,17,10,59,15.40
2006,08,17,11,00,15.30
2006,08,17,11,01,15.30
2006,08,17,11,02,15.10
2006,08,17,11,03,15.00
2006,08,17,11,04,15.00
2006,08,17,11,05,15.00
2006,08,17,11,06,15.00
2006,08,17,11,07,15.00
2006,08,17,11,08,15.00
2006,08,17,11,09,15.00
2006,08,17,11,10,15.00
2006,08,17,11,11,15.00
2006,08,17,11,12,15.00
2006,08,17,11,13,14.90
2006,08,17,11,14,14.90
2006,08,17,11,15,14.90
2006,08,17,11,16,15.00
2006,08,17,11,17,15.00
2006,08,17,11,18,15.00
2006,08,17,11,19,15.00
2006,08,17,11,20,15.00
2006,08,17,11,21,15.00
2006,08,17,11,22,15.00
2006,08,17,11,23,15.10
2006,08,17,11,24,15.20
2006,08,17,11,25,15.30
2006,08,17,11,26,15.30
2006,08,17,11,27,15.20
2006,08,17,11,28,15.20
2006,08,17,11,29,15.20
2006,08,17,11,30,15.20
2006,08,17,11,31,15.30
2006,08,17,11,32,15.40
2006,08,17,11,33,15.50
2006,08,17,11,34,15.60
2006,08,17,11,35,15.60
2006,08,17,11,36,15.60
2006,08,17,11,37,15.60
2006,08,17,11,38,15.50
2006,08,17,11,39,15.50
2006,08,17,11,40,15.50
2006,08,17,11,41,15.50
2006,08,17,11,42,15.60
2006,08,17,11,43,15.60
2006,08,17,11,44,15.50
2006,08,17,11,45,15.40
2006,08,17,11,46,15.40
2006,08,17,11,47,15.40
2006,08,17,11,48,15.30
2006,08,17,11,49,15.30
2006,08,17,11,50,15.30
2006,08,17,11,51,15.30
2006,08,17,11,52,15.30
2006,08,17,11,53,15.30
2006,08,17,11,54,15.40
2006,08,17,11,55,15.50
2006,08,17,11,56,15.50
2006,08,17,11,57,15.50
2006,08,17,11,58,15.50
2006,08,17,11,59,15.40
2006,08,17,12,00,15.50
2006,08,17,12,01,15.60
2006,08,17,12,02,15.60
2006,08,17,12,03,15.60
2006,08,17,12,04,15.60
2006,08,17,12,05,15.60
2006,08,17,12,06,15.60
2006,08,17,12,07,15.60
2006,08,17,12,08,15.70
2006,08,17,12,09,15.80
2006,08,17,12,10,15.70
2006,08,17,12,11,15.60
2006,08,17,12,12,15.60
2006,08,17,12,13,15.60
2006,08,17,12,14,15.60
2006,08,17,12,15,15.60
2006,08,17,12,16,15.60
2006,08,17,12,17,15.50
2006,08,17,12,18,15.40
2006,08,17,12,19,15.40
2006,08,17,12,20,15.40
2006,08,17,12,21,15.40
2006,08,17,12,22,15.40
2006,08,17,12,23,15.40
2006,08,17,12,24,15.50
2006,08,17,12,25,15.60
2006,08,17,12,26,15.70
2006,08,17,12,27,15.80
2006,08,17,12,28,15.80
2006,08,17,12,29,15.80
2006,08,17,12,30,15.70
2006,08,17,12,31,15.70
2006,08,17,12,32,15.60
2006,08,17,12,33,15.60
2006,08,17,12,34,15.60
2006,08,17,12,35,15.60
2006,08,17,12,36,15.70
2006,08,17,12,37,15.70
2006,08,17,12,38,15.60
2006,08,17,12,39,15.60
2006,08,17,12,40,15.50
2006,08,17,12,41,15.40
2006,08,17,12,42,15.40
2006,08,17,12,43,15.50
2006,08,17,12,44,15.60
2006,08,17,12,45,15.70
2006,08,17,12,46,15.70
2006,08,17,12,47,15.70
2006,08,17,12,48,15.70
2006,08,17,12,49,15.70
2006,08,17,12,50,15.70
2006,08,17,12,51,15.70
2006,08,17,12,52,15.70
2006,08,17,12,53,15.70
2006,08,17,12,54,15.70
2006,08,17,12,55,15.80
2006,08,17,12,56,16.00
2006,08,17,12,57,16.00
2006,08,17,12,58,16.20
2006,08,17,12,59,16.20
2006,08,17,13,00,16.30
2006,08,17,13,01,16.30
2006,08,17,13,02,16.40
2006,08,17,13,03,16.40
2006,08,17,13,04,16.40
2006,08,17,13,05,16.40
2006,08,17,13,06,16.40
2006,08,17,13,07,16.30
2006,08,17,13,08,16.30
2006,08,17,13,09,16.30
2006,08,17,13,10,16.30
2006,08,17,13,11,16.30
2006,08,17,13,12,16.30
2006,08,17,13,13,16.40
2006,08,17,13,14,16.50
2006,08,17,13,15,16.50
2006,08,17,13,16,16.50
2006,08,17,13,17,16.40
2006,08,17,13,18,16.40
2006,08,17,13,19,16.40
2006,08,17,13,20,16.40
2006,08,17,13,21,16.50
2006,08,17,13,22,16.50
2006,08,17,13,23,16.50
2006,08,17,13,24,16.50
2006,08,17,13,25,16.40
2006,08,17,13,26,16.30
2006,08,17,13,27,16.20
2006,08,17,13,28,16.20
2006,08,17,13,29,16.20
2006,08,17,13,30,16.20
2006,08,17,13,31,16.20
2006,08,17,13,32,16.20
2006,08,17,13,33,16.20
2006,08,17,13,34,16.20
2006,08,17,13,35,16.20
2006,08,17,13,36,16.10
2006,08,17,13,37,16.20
2006,08,17,13,38,16.30
2006,08,17,13,39,16.30
2006,08,17,13,40,16.30
2006,08,17,13,41,16.30
2006,08,17,13,42,16.30
2006,08,17,13,43,16.30
2006,08,17,13,44,16.30
2006,08,17,13,45,16.30
2006,08,17,13,46,16.30
2006,08,17,13,47,16.30
2006,08,17,13,48,16.30
2006,08,17,13,49,16.30
2006,08,17,13,50,16.40
2006,08,17,13,51,16.40
2006,08,17,13,52,16.40
2006,08,17,13,53,16.30
2006,08,17,13,54,16.40
2006,08,17,13,55,16.40
2006,08,17,13,56,16.40
2006,08,17,13,57,16.50
2006,08,17,13,58,16.60
2006,08,17,13,59,16.70
2006,08,17,14,00,16.80
2006,08,17,14,01,16.90
2006,08,17,14,02,16.90
2006,08,17,14,03,16.90
2006,08,17,14,04,16.90
2006,08,17,14,05,17.10
2006,08,17,14,06,17.20
2006,08,17,14,07,17.20
2006,08,17,14,08,17.30
2006,08,17,14,09,17.30
2006,08,17,14,10,17.30
2006,08,17,14,11,17.30
2006,08,17,14,12,17.30
2006,08,17,14,13,17.30
2006,08,17,14,14,17.30
2006,08,17,14,15,17.40
2006,08,17,14,16,17.50
2006,08,17,14,17,17.50
2006,08,17,14,18,17.40
2006,08,17,14,19,17.40
2006,08,17,14,20,17.30
2006,08,17,14,21,17.30
2006,08,17,14,22,17.40
2006,08,17,14,23,17.40
2006,08,17,14,24,17.40
2006,08,17,14,25,17.40
2006,08,17,14,26,17.40
2006,08,17,14,27,17.40
2006,08,17,14,28,17.40
2006,08,17,14,29,17.40
2006,08,17,14,30,17.50
2006,08,17,14,31,17.60
2006,08,17,14,32,17.60
2006,08,17,14,33,17.70
2006,08,17,14,34,17.70
2006,08,17,14,35,17.80
2006,08,17,14,36,17.80
2006,08,17,14,37,17.80
2006,08,17,14,38,17.80
2006,08,17,14,39,17.90
2006,08,17,14,40,17.90
2006,08,17,14,41,17.90
2006,08,17,14,42,17.70
2006,08,17,14,43,17.70
2006,08,17,14,44,17.70
2006,08,17,14,45,17.70
2006,08,17,14,46,17.70
2006,08,17,14,47,17.60
2006,08,17,14,48,17.60
2006,08,17,14,49,17.60
2006,08,17,14,50,17.50
2006,08,17,14,51,17.40
2006,08,17,14,52,17.50
2006,08,17,14,53,17.50
2006,08,17,14,54,17.60
2006,08,17,14,55,17.60
2006,08,17,14,56,17.70
2006,08,17,14,57,17.80
2006,08,17,14,58,18.00
2006,08,17,14,59,18.10
2006,08,17,15,00,18.10
2006,08,17,15,01,18.00
2006,08,17,15,02,18.00
2006,08,17,15,03,18.00
2006,08,17,15,04,17.90
2006,08,17,15,05,17.90
2006,08,17,15,06,17.90
2006,08,17,15,07,17.90
2006,08,17,15,08,18.00
2006,08,17,15,09,18.10
2006,08,17,15,10,18.00
2006,08,17,15,11,18.00
2006,08,17,15,12,18.00
2006,08,17,15,13,18.00
2006,08,17,15,14,18.10
2006,08,17,15,15,18.10
2006,08,17,15,16,18.00
2006,08,17,15,17,17.90
2006,08,17,15,18,17.90
2006,08,17,15,19,18.00
2006,08,17,15,20,18.00
2006,08,17,15,21,17.90
2006,08,17,15,22,17.80
2006,08,17,15,23,17.80
2006,08,17,15,24,17.80
2006,08,17,15,25,17.90
2006,08,17,15,26,18.00
2006,08,17,15,27,18.00
2006,08,17,15,28,17.90
2006,08,17,15,29,17.90
2006,08,17,15,30,18.00
2006,08,17,15,31,18.10
2006,08,17,15,32,18.10
2006,08,17,15,33,18.10
2006,08,17,15,34,18.10
2006,08,17,15,35,18.20
2006,08,17,15,36,18.20
2006,08,17,15,37,18.20
2006,08,17,15,38,18.20
2006,08,17,15,39,18.20
2006,08,17,15,40,18.20
2006,08,17,15,41,18.20
2006,08,17,15,42,18.20
2006,08,17,15,43,18.10
2006,08,17,15,44,18.10
2006,08,17,15,45,18.00
2006,08,17,15,46,18.10
2006,08,17,15,47,18.00
2006,08,17,15,48,17.90
2006,08,17,15,49,18.00
2006,08,17,15,50,18.00
2006,08,17,15,51,18.10
2006,08,17,15,52,18.20
2006,08,17,15,53,18.20
2006,08,17,15,54,18.20
2006,08,17,15,55,18.30
2006,08,17,15,56,18.30
2006,08,17,15,57,18.40
2006,08,17,15,58,18.40
2006,08,17,15,59,18.40
2006,08,17,16,00,18.50
2006,08,17,16,01,18.60
2006,08,17,16,02,18.60
2006,08,17,16,03,18.70
2006,08,17,16,04,18.80
2006,08,17,16,05,18.90
2006,08,17,16,06,18.90
2006,08,17,16,07,18.90
2006,08,17,16,08,18.80
2006,08,17,16,09,18.80
2006,08,17,16,10,18.70
2006,08,17,16,11,18.70
2006,08,17,16,12,18.80
2006,08,17,16,13,18.80
2006,08,17,16,14,18.80
2006,08,17,16,15,18.80
2006,08,17,16,16,18.90
2006,08,17,16,17,18.90
2006,08,17,16,18,19.00
2006,08,17,16,19,19.20
2006,08,17,16,20,19.40
2006,08,17,16,21,19.60
2006,08,17,16,22,19.60
2006,08,17,16,23,19.50
2006,08,17,16,24,19.50
2006,08,17,16,25,19.60
2006,08,17,16,26,19.60
2006,08,17,16,27,19.60
2006,08,17,16,28,19.50
2006,08,17,16,29,19.50
2006,08,17,16,30,19.60
2006,08,17,16,31,19.70
2006,08,17,16,32,19.70
2006,08,17,16,33,19.70
2006,08,17,16,34,19.80
2006,08,17,16,35,19.90
2006,08,17,16,36,19.90
2006,08,17,16,37,19.90
2006,08,17,16,38,19.90
2006,08,17,16,39,19.90
2006,08,17,16,40,19.80
2006,08,17,16,41,19.80
2006,08,17,16,42,19.70
2006,08,17,16,43,19.70
2006,08,17,16,44,19.70
2006,08,17,16,45,19.70
2006,08,17,16,46,19.70
2006,08,17,16,47,19.80
2006,08,17,16,48,19.80
2006,08,17,16,49,19.90
2006,08,17,16,50,20.00
2006,08,17,16,51,20.00
2006,08,17,16,52,20.10
2006,08,17,16,53,20.10
2006,08,17,16,54,20.10
2006,08,17,16,55,20.20
2006,08,17,16,56,20.20
2006,08,17,16,57,20.20
2006,08,17,16,58,20.20
2006,08,17,16,59,20.30
2006,08,17,17,00,20.30
2006,08,17,17,01,20.40
2006,08,17,17,02,20.50
2006,08,17,17,03,20.60
2006,08,17,17,04,20.60
2006,08,17,17,05,20.60
2006,08,17,17,06,20.60
2006,08,17,17,07,20.60
2006,08,17,17,08,20.60
2006,08,17,17,09,20.60
2006,08,17,17,10,20.60
2006,08,17,17,11,20.60
2006,08,17,17,12,20.60
2006,08,17,17,13,20.60
2006,08,17,17,14,20.60
2006,08,17,17,15,20.60
2006,08,17,17,16,20.60
2006,08,17,17,17,20.50
2006,08,17,17,18,20.50
2006,08,17,17,19,20.60